Simultaneous Nadir Overpasses (SNOs) Predictions

Prediction of SNOs between NOAA-20 and AQUA Satellite Orbit:

Table of predicted SNOs for the next 14.0 days since TLE Epoch: 2/5/2022
Index Date (NOAA-20) Time (NOAA-20) Lat,Lon (NOAA-20) SZA (NOAA-20 ) Date (AQUA) Time (AQUA) Lat,Lon (AQUA) SZA (AQUA ) Distance(km) Time Diff (sec)
1 02/06/2022 06:46:10 76.56, -40.51 112.48 02/06/2022 06:46:41 76.56, -40.48 112.45 0.83 31
2 02/06/2022 07:36:36 -77.42, 130.37 68.63 02/06/2022 07:35:50 -77.42, 130.35 68.59 0.39 46
3 02/08/2022 22:13:51 -72.40,-103.39 63.58 02/08/2022 22:15:05 -72.30,-102.82 63.72 22.60 74
4 02/08/2022 23:02:56 77.11, 77.48 110.97 02/08/2022 23:02:55 77.10, 77.38 110.99 2.59 1
5 02/08/2022 23:50:00 -80.64, -44.44 81.35 02/08/2022 23:48:47 -81.29, -43.04 81.04 76.38 73
6 02/11/2022 14:29:23 -76.57, 23.73 69.19 02/11/2022 14:30:06 -76.56, 23.68 69.21 1.35 43
7 02/11/2022 15:19:47 77.44,-165.35 109.70 02/11/2022 15:19:13 77.43,-165.44 109.75 2.51 34
8 02/14/2022 06:46:17 -76.72, 140.10 70.27 02/14/2022 06:46:26 -76.73, 140.18 70.29 2.27 9
9 02/14/2022 07:36:42 77.54, -49.11 108.68 02/14/2022 07:35:34 77.54, -49.06 108.72 1.17 68
10 02/16/2022 22:12:37 76.38, 87.25 109.27 02/16/2022 22:13:30 76.38, 87.24 109.23 0.29 53



Historial Predications of SNOs between NOAA-20 and AQUA
